Volver al catálogo

FENGYUN 1C DEB

ActivoPO
NORAD 33640·DEBRIS·🇨🇳 China

Lanzado May 10, 1999 desde Taiyuan Satellite Launch Center

Loading…

Próximos Pases (próximas 24 horas)

TLE

ActualizadoSource: Space-Track

Época: Sep 12, 2026, 08:29 UTC

1 33640U 99025DDZ 26255.35400125  .00001231  00000-0  33590-3 0  9991
2 33640  98.8695 215.3923 0090457  60.9863 300.0355 14.46888148962987

Sigue FENGYUN 1C DEB en tiempo real con AllMySat

Download on the App Store